Terminal Aerodrome Forecast
Issued by NWS Sterling, VA

Current Version | Previous Version | Graphics & Text | Print | Product List | Glossary On
Versions: 1 2 3 4 5 6 7 8 9 10 11 12 13 14 15 16 17 18 19 20 21 22 23 24 25 26 27 28 29
000
FTUS41 KLWX 051444 AAA
TAFDCA
TAF AMD
KDCA 051444Z 0515/0612 29005KT P6SM BKN090
     FM052100 21006KT P6SM -SHRA BKN050
     FM052200 23006KT P6SM BKN090
     FM060400 00000KT P6SM BKN090=

USA.gov is the U.S. government's official web portal to all federal, state and local government web resources and services.